User: anonymous   Login
Location: Unspecified
(0.0000°N, 0.0000°E)
Time: 23:59:56
(UTC+00:00)
Language:

ONEWEB-0406 - Orbit

View from above orbital plane
View from above orbital plane
View from above satellite
View from above satellite

Ground track
Ground track

The orbit is defined by the following mean orbital elements,

1 50486U          26145.28457758 +.00000000 +00000-0 -46658-4 0 00004
2 50486  87.9160 340.0151 0002339  96.8463 263.2936 13.18687938    08
Epoch (UTC): 25 May 2026 06:49:47
Eccentricity: 0.0002339
inclination: 87.9160°
perigee height: 1188 km
apogee height: 1192 km
right ascension of ascending node: 340.0151°
argument of perigee: 96.8463°
revolutions per day: 13.18687938
mean anomaly at epoch: 263.2936°

The dashed part of the orbit path shows where the satellite is in the earth's shadow,  

DLR